Regional Weather Roundup
Issued by NWS

Home | Current Version | Previous Version | Text Only | Print | Product List | Glossary On
Versions: 1 2 3 4 5 6 7 8 9 10 11 12 13 14 15 16 17 18 19 20 21 22 23 24 25 26 27 28 29 30 31 32 33 34 35 36 37 38 39 40 41 42 43 44 45 46 47 48 49 50
000
ASUS43 KDMX 291804
RWRIA

WEATHER ROUNDUP FOR IOWA
NATIONAL WEATHER SERVICE DES MOINES IA
  ISSUED BY NWS QUAD CITIES IA IL
1200 PM CST THU JAN 29 2015

NOTE: "FAIR" INDICATES FEW OR NO CLOUDS BELOW 12,000 FEET WITH NO
SIGNIFICANT WEATHER AND/OR OBSTRUCTIONS TO VISIBILITY.

* - THESE STATIONS ARE NOT NWS STATIONS...THUS NOT UNDER NWS
QUALITY CONTROL.  THEY ALSO DO NOT REPORT WEATHER SUCH
AS PRECIPITATION OR FOG.

IAZ001>003-012>014-020>022-031>034-043>046-291900-
   NORTHWEST IOWA

CITY           SKY/WX    TMP DP  RH WIND       PRES   REMARKS
CARROLL *      CLOUDY    36  28  75 NW22G35   30.33R WCI  24
CHEROKEE *     CLOUDY    33  26  75 N23G36    30.37R WCI  20
6HR MIN TEMP:  31; 6HR MAX TEMP:  33;

DENNISON *     CLOUDY    34  27  75 N22G28    30.35R WCI  22
LE MARS *      CLOUDY    34  27  75 N18G31    30.41R WCI  23
SIOUX CITY     CLOUDY    36  26  67 N21G28    30.42R WCI  25
6HR MIN TEMP:  34; 6HR MAX TEMP:  36;

SPENCER        CLOUDY    32  23  69 NW25G37   30.34R WCI  19
6HR MIN TEMP:  30; 6HR MAX TEMP:  32;

$$

IAZ055>058-069>071-079>083-090>094-291900-
   SOUTHWEST IOWA

CITY           SKY/WX    TMP DP  RH WIND       PRES   REMARKS
ATLANTIC *     CLOUDY    36  27  69 N22G32    30.36R WCI  24
AUDUBON *      PTSUNNY   36  27  69 NW18G25   30.35R WCI  25
CLARINDA *     CLOUDY    37  25  60 N31G38    30.38R WCI  25
COUNCIL BLFS *   N/A     37  27  65 N22G31    30.37R WCI  27
CRESTON *      CLOUDY    34  27  75 NW29G38   30.32R WCI  20
HARLAN *       CLOUDY    36  28  75 N25G37    30.40R WCI  23
LAMONI         CLOUDY    36  27  69 NW21G32   30.29R WCI  25
6HR MIN TEMP:  34; 6HR MAX TEMP:  37;

$$

IAZ047>049-059>061-072>074-084-291900-
   CENTRAL IOWA

CITY           SKY/WX    TMP DP  RH WIND       PRES   REMARKS
AMES           CLOUDY    32  24  72 N22G33    30.27R WCI  19
6HR MIN TEMP:  32; 6HR MAX TEMP:  34;

ANKENY *       CLOUDY    34  27  75 NW25G35   30.28R WCI  21
BOONE *        CLOUDY    34  27  75 N32G44    30.26R WCI  20
CHARITON *     CLOUDY    34  28  80 NW24G37   30.26R WCI  21
DES MOINES     CLOUDY    34  25  69 N17G29    30.29R WCI  23
6HR MIN TEMP:  34; 6HR MAX TEMP:  36; 6HR PCP: TRACE;

GRINNELL *     CLOUDY    32  28  84 NW22G32   30.22R WCI  19
6HR MIN TEMP:  32; 6HR MAX TEMP:  34;

MARSHALLTOWN   CLOUDY    31  26  82 NW28G35   30.23R WCI  17
6HR MIN TEMP:  31; 6HR MAX TEMP:  34;

PERRY *          N/A     34  27  75 N25G36    30.31R WCI  21
6HR MIN TEMP:  33; 6HR MAX TEMP:  35;

$$

IAZ004>006-015-016-023>025-035-036-291900-
   NORTH CENTRAL IOWA

CITY           SKY/WX    TMP DP  RH WIND       PRES   REMARKS
ALGONA *       CLOUDY    32  27  80 NW22G32   30.30R WCI  19
CLARION *      MIX PCPN  32  28  86 NW24G39   30.26R WCI  19
ESTHERVILLE    CLOUDY    29  22  75 NW32G43   30.32R WCI  13
6HR MIN TEMP:  28; 6HR MAX TEMP:  30;

FORT DODGE *   CLOUDY    32  25  74 N15G31    30.30R WCI  22
6HR MIN TEMP:  30; 6HR MAX TEMP:  34;

MASON CITY     CLOUDY    32  25  75 NW25G37   30.24R WCI  19
6HR MIN TEMP:  29; 6HR MAX TEMP:  32;

WEBSTER CITY * LGT RAIN  32  30  93 N33G43    30.25R WCI  17
IOWA FALLS *   CLOUDY    32  26  78 NW30G40   30.24R WCI  17
6HR MIN TEMP:  31; 6HR MAX TEMP:  33;

$$

IAZ007>011-017>019-026>030-037>042-050>054-066-291900-
   NORTHEAST IOWA

CITY           SKY/WX    TMP DP  RH WIND       PRES   REMARKS
CEDAR RAPIDS   CLOUDY    34  30  85 NW25G33   30.14R WCI  21
6HR MIN TEMP:  33; 6HR MAX TEMP:  35; 6HR PCP: TRACE;

CHARLES CITY * CLOUDY    32  28  86 NW30G37   30.19R WCI  18
CLINTON *      CLOUDY    36  28  75 NW17      30.09R WCI  25
6HR MIN TEMP:  34; 6HR MAX TEMP:  36;

DECORAH *      CLOUDY    34  27  75 NW17G25   30.11R WCI  23
DUBUQUE        CLOUDY    34  28  79 N22G28    30.05R WCI  22
6HR MIN TEMP:  31; 6HR MAX TEMP:  34;

WATERLOO       CLOUDY    33  27  78 NW23G32   30.18R WCI  21
6HR MIN TEMP:  32; 6HR MAX TEMP:  34; 6HR PCP: TRACE;

$$

IAZ064-065-067-068-078-291900-
   EAST CENTRAL IOWA

CITY           SKY/WX    TMP DP  RH WIND       PRES   REMARKS
DAVENPORT      CLOUDY    35  29  78 NW16      30.09R WCI  25
6HR MIN TEMP:  33; 6HR MAX TEMP:  35;

IOWA CITY      CLOUDY    35  29  78 NW24G32   30.16R WCI  23
6HR MIN TEMP:  35; 6HR MAX TEMP:  36; 6HR PCP: TRACE;

MT. PLEASANT * CLOUDY    35  30  82 NW21G28   30.17R WCI  24
6HR MIN TEMP:  34; 6HR MAX TEMP:  36;

MUSCATINE *    CLOUDY    36  32  87 NW17G25   30.14R WCI  25
QUAD CITIES    CLOUDY    36  30  79 NW17G26   30.08R WCI  26
6HR MIN TEMP:  34; 6HR MAX TEMP:  36;

$$

IAZ062-063-075>077-085>089-095>099-291900-
   SOUTHEAST IOWA

CITY           SKY/WX    TMP DP  RH WIND       PRES   REMARKS
BURLINGTON     CLOUDY    36  31  82 NW18G37   30.13R WCI  26
6HR MIN TEMP:  36; 6HR MAX TEMP:  37;

FAIRFIELD *    CLOUDY    34  28  80 NW21G33   30.19R WCI  22
FORT MADISON * CLOUDY    36  32  87 NW21G36   30.16R WCI  24
KEOKUK *       CLOUDY    37  32  81 NW16G29   30.16R WCI  28
OTTUMWA        CLOUDY    34  27  75 NW25      30.22R WCI  21
6HR MIN TEMP:  34; 6HR MAX TEMP:  35;

WASHINGTON *   CLOUDY    36  34  93 NW21G29   30.17R WCI  24
$$

ABBREVIATIONS USED IN REMARKS
   TC - TEMPERATURES IN CELSIUS
  WCI - WIND CHILL INDEX
   HX - HEAT INDEX
  VSB - VISIBILITY
$$


USA.gov is the U.S. government's official web portal to all federal, state and local government web resources and services.